Etusivu
METAR-TAF:

METAR-TAF

Lentoasemat :

Harry P. Williams Memorial Airport

Patterson, Louisiana, Yhdysvallat

Leveyspiiri: 29-43N, Pituuspiiri: 091-20W, korkeus merenpinnasta: 3 m

Tämänhetkinen sää

Tämä raportti tehtiin 35 minuuttia sitten, kello 14.56 UTC
Tuuli 10 kn etelästä
Lämpötila 22°C
Kosteus 94%
Ilmanpaine 1015 hPa
Näkyvyys: 16.1 km
Muutamia pilviä 800 ft:n korkeudessa

METAR: KPTN 091456Z AUTO 19010KT 10SM FEW008 22/21 A2997 RMK AO2 SLP150 T02220211 51009

Aika: 09:31 (15:31 UTC)


TAF: puuttuu

Säähavainnot ja -ennusteet yli 4000 lentoasemalta (METAR- ja TAF-raportit).

Käytössä olevat sääasemat on merkitty karttaan keltaisilla ja punaisilla pisteillä.

Aseta hiiri pisteen päälle nähdäksesi sääaseman nimen.

Klikkaa sitten nähdäksesi säähavainnot ja -ennusteet.

Kartan vaihtaminen: klikkaa mustalla rastilla varustettuja vihreitä pisteitä, niin voit zoomata sisään; viivalla varustettua vihreää pistettä, niin voit zoomata ulos tai vihreitä nuolia, niin pääset viereisille kartoille.


METAR-TAF: